Location: Izdebno
(52.6670°N, 16.2170°E)
Time: 11:07:29
(UTC+01:00)

Transit 2A - Pass Details

Date: 06 February 2023
Orbit: 591 x 964 km, 66.7° (Epoch: 21 March)

Event Time Altitude Azimuth Distance (km) Brightness Sun altitude
Rises 00:54:55 0° 319° (NW) 3,462 - -52.0°
Reaches altitude 10° 00:57:21 10° 317° (NW) 2,567 - -51.9°
Maximum altitude 01:03:20 69° 236° (SW) 1,001 - -51.6°
Drops below altitude 10° 01:09:39 10° 155° (SSE) 2,692 - -51.2°
Sets 01:12:14 0° 153° (SSE) 3,640 - -51.0°
